Location: Arlington
(40.6323°N, 74.1651°W)
Time: 15:32:43
(UTC+00:00)

CSL-04 Debris - Pass Details

Date: 22 November 2019
Orbit: 827 x 849 km, 99.0° (Epoch: 05 December)

Event Time Altitude Azimuth Distance (km) Brightness Sun altitude
Rises 23:03:09 0° 152° (SSE) 3,398 7.2 -16.7°
Reaches altitude 10° 23:05:33 10° 148° (SSE) 2,466 6.4 -17.2°
Maximum altitude 23:10:53 56° 71° (ENE) 1,000 4.2 -18.2°
Drops below altitude 10° 23:16:14 10° 355° (N) 2,474 6.6 -19.2°
Sets 23:18:38 0° 351° (N) 3,410 7.3 -19.6°
